Air Resources Laboratory banner image
Air Resources Laboratory web site National Oceanic and Atmospheric Administration (NOAA)

ne roundup


Office: OAX

ASUS43 KOAX 110803
RWRNE

WEATHER ROUNDUP FOR NEBRASKA
NATIONAL WEATHER SERVICE OMAHA NE
300 AM CDT THU AUG 11 2022

NOTES: SATELLITE DATA IS BEING USED TO AUGMENT CLOUD COVER ABOVE
       12000 FEET.
       "FAIR" INDICATES FEW OR NO CLOUDS BELOW 12,000 FEET WITH NO
       SIGNIFICANT WEATHER AND/OR OBSTRUCTIONS TO VISIBILITY.


NEZ001>004-019>022-054>056-110900-
NEBRASKA PANHANDLE

CITY           SKY/WX    TMP DP  RH WIND       PRES   REMARKS
SCOTTSBLUFF    CLEAR     74  54  49 E9        30.21S
ALLIANCE       CLEAR     64  51  62 SE9       30.22S
CHADRON        CLEAR     83  50  31 S18       30.13S
GORDON         CLEAR     69  52  53 S6        30.19R
KIMBALL        CLEAR     69  53  56 S14       30.29F
SIDNEY         CLEAR     73  51  46 S14       30.25F
$$

NEZ057>060-069>072-079>082-110900-
SOUTHWEST NEBRASKA

CITY           SKY/WX    TMP DP  RH WIND       PRES   REMARKS
NORTH PLATTE   CLEAR     72  55  55 CALM      30.19S
IMPERIAL       CLEAR     70  54  56 SW12      30.23S
LEXINGTON      CLEAR     70  61  73 S6        30.19F
MCCOOK         CLEAR     70  54  56 SW7       30.19F
OGALLALA       CLEAR     72  52  50 W5        30.23R
$$

NEZ005>010-023>029-035>040-094-110900-
NORTH CENTRAL NEBRASKA

CITY           SKY/WX    TMP DP  RH WIND       PRES   REMARKS
VALENTINE      CLEAR     77  54  44 SW14      30.12F
AINSWORTH      CLEAR     71  59  64 S9        30.15S
BROKEN BOW     CLEAR     66  60  81 SE3       30.18F
O'NEILL        CLEAR     72  65  77 SE5       30.16R
ORD            CLEAR     68  66  93 E3        30.16S
THEDFORD       CLEAR     73  55  51 S10       30.19S
$$

NEZ041-046>049-061>064-073>077-083>087-110900-
SOUTH CENTRAL NEBRASKA

CITY           SKY/WX    TMP DP  RH WIND       PRES   REMARKS
GRAND ISLAND   CLEAR     74  62  66 S10       30.18S
AURORA         PTCLDY    72  65  78 S7        30.18S
HASTINGS       MOCLDY    71  63  75 S6        30.20S
HEBRON         CLEAR     69  61  76 CALM      30.19S
HOLDREGE       CLEAR     66  63  89 S6        30.19S
KEARNEY        PTCLDY    68  63  84 S9        30.19S
YORK           PTCLDY    70  63  78 S8        30.18S
$$

NEZ011>018-030>034-042>045-110900-
NORTHEAST NEBRASKA

CITY           SKY/WX    TMP DP  RH WIND       PRES   REMARKS
NORFOLK        CLEAR     74  63  68 S6        30.16R
ALBION         CLEAR     70  66  86 SE5       30.17S
BLAIR          CLEAR     69  64  84 S3        30.17S
COLUMBUS       CLEAR     73  64  73 S10       30.17F
FREMONT        CLEAR     76  64  66 S5        30.17S
TEKAMAH        CLEAR     66  63  90 SE7       30.15S
WAYNE          CLEAR     69  65  86 S5        30.16R
$$

NEZ050>053-065>068-078-088>093-110900-
SOUTHEAST NEBRASKA

CITY           SKY/WX    TMP DP  RH WIND       PRES   REMARKS
LINCOLN        CLEAR     71  61  70 S5        30.18S
OMAHA EPPLEY   CLEAR     72  66  81 E3        30.16S
BEATRICE       CLEAR     67  61  81 CALM      30.18F
FALLS CITY     CLEAR     65  63  93 CALM      30.16S
NEBRASKA CITY  CLEAR     67  63  86 SW5       30.18R
PLATTSMOUTH    CLEAR     66  63  88 CALM      30.17S
$$

NEZ044-045-051>053-067-110900-
OMAHA AREA

CITY           SKY/WX    TMP DP  RH WIND       PRES   REMARKS
OMAHA EPPLEY   CLEAR     72  66  81 E3        30.16S
BLAIR          CLEAR     69  64  84 S3        30.17S
FREMONT        CLEAR     76  64  66 S5        30.17S
MILLARD        CLEAR     68  65  88 CALM      30.16S
OFFUTT AFB     CLEAR     68  64  86 CALM      30.18S
PLATTSMOUTH    CLEAR     66  63  88 CALM      30.17S
WAHOO          CLEAR     67  65  94 CALM      30.17R
$$


ASUS43 KOAX 110810
RWRNE
WEATHER ROUNDUP FOR NEBRASKA
NATIONAL WEATHER SERVICE OMAHA NE
300 AM CDT THU AUG 11 2022

NOTES: SATELLITE DATA IS BEING USED TO AUGMENT CLOUD COVER ABOVE
       12000 FEET.
       "FAIR" INDICATES FEW OR NO CLOUDS BELOW 12,000 FEET WITH NO
       SIGNIFICANT WEATHER AND/OR OBSTRUCTIONS TO VISIBILITY.


NEZ001>004-019>022-054>056-110900-
NEBRASKA PANHANDLE

CITY           SKY/WX    TMP DP  RH WIND       PRES   REMARKS
SCOTTSBLUFF    CLEAR     74  54  49 E9        30.21S
ALLIANCE       CLEAR     64  51  62 SE9       30.22S
CHADRON        CLEAR     83  50  31 S18       30.13S
GORDON         CLEAR     69  52  53 S6        30.19R
KIMBALL        CLEAR     69  53  56 S14       30.29F
SIDNEY         CLEAR     73  51  46 S14       30.25F
$$

NEZ057>060-069>072-079>082-110900-
SOUTHWEST NEBRASKA

CITY           SKY/WX    TMP DP  RH WIND       PRES   REMARKS
NORTH PLATTE   CLEAR     72  55  55 CALM      30.19S
IMPERIAL       CLEAR     70  54  56 SW12      30.23S
LEXINGTON      CLEAR     70  61  73 S6        30.19F
MCCOOK         CLEAR     70  54  56 SW7       30.19F
OGALLALA       CLEAR     72  52  50 W5        30.23R
$$

NEZ005>010-023>029-035>040-094-110900-
NORTH CENTRAL NEBRASKA

CITY           SKY/WX    TMP DP  RH WIND       PRES   REMARKS
VALENTINE      CLEAR     77  54  44 SW14      30.12F
AINSWORTH      CLEAR     71  59  64 S9        30.15S
BROKEN BOW     CLEAR     66  60  81 SE3       30.18F
O'NEILL        CLEAR     72  65  77 SE5       30.16R
ORD            CLEAR     68  66  93 E3        30.16S
THEDFORD       CLEAR     73  55  51 S10       30.19S
$$

NEZ041-046>049-061>064-073>077-083>087-110900-
SOUTH CENTRAL NEBRASKA

CITY           SKY/WX    TMP DP  RH WIND       PRES   REMARKS
GRAND ISLAND   CLEAR     74  62  66 S10       30.18S
AURORA         PTCLDY    72  65  78 S7        30.18S
HASTINGS       MOCLDY    71  63  75 S6        30.20S
HEBRON         CLEAR     69  61  76 CALM      30.19S
HOLDREGE       CLEAR     66  63  89 S6        30.19S
KEARNEY        PTCLDY    68  63  84 S9        30.19S
YORK           PTCLDY    70  63  78 S8        30.18S
$$

NEZ011>018-030>034-042>045-110900-
NORTHEAST NEBRASKA

CITY           SKY/WX    TMP DP  RH WIND       PRES   REMARKS
NORFOLK        CLEAR     74  63  68 S6        30.16R
ALBION         CLEAR     70  66  86 SE5       30.17S
BLAIR          CLEAR     69  64  84 S3        30.17S
COLUMBUS       CLEAR     73  64  73 S10       30.17F
FREMONT        CLEAR     76  64  66 S5        30.17S
TEKAMAH        CLEAR     66  63  90 SE7       30.15S
WAYNE          CLEAR     69  65  86 S5        30.16R
$$

NEZ050>053-065>068-078-088>093-110900-
SOUTHEAST NEBRASKA

CITY           SKY/WX    TMP DP  RH WIND       PRES   REMARKS
LINCOLN        CLEAR     71  61  70 S5        30.18S
OMAHA EPPLEY   CLEAR     72  66  81 E3        30.16S
BEATRICE       CLEAR     67  61  81 CALM      30.18F
FALLS CITY     CLEAR     65  63  93 CALM      30.16S
NEBRASKA CITY  CLEAR     67  63  86 SW5       30.18R
PLATTSMOUTH    CLEAR     66  63  88 CALM      30.17S
$$

NEZ044-045-051>053-067-110900-
OMAHA AREA

CITY           SKY/WX    TMP DP  RH WIND       PRES   REMARKS
OMAHA EPPLEY   CLEAR     72  66  81 E3        30.16S
BLAIR          CLEAR     69  64  84 S3        30.17S
FREMONT        CLEAR     76  64  66 S5        30.17S
MILLARD        CLEAR     68  65  88 CALM      30.16S
OFFUTT AFB     CLEAR     68  64  86 CALM      30.18S
PLATTSMOUTH    CLEAR     66  63  88 CALM      30.17S
WAHOO          CLEAR     67  65  94 CALM      30.17R
$$




Office: FSD ASUS43 KFSD 110802 RWRFSD WEATHER ROUNDUP FOR SE SOUTH DAKOTA/SW MINNESOTA/NW IOWA NATIONAL WEATHER SERVICE SIOUX FALLS SD 300 AM CDT THU AUG 11 2022 NOTE: "FAIR" INDICATES FEW OR NO CLOUDS BELOW 12,000 FEET WITH NO SIGNIFICANT WEATHER AND OR OBSTRUCTIONS TO VISIBILITY. SDZ038>040-050-052>070-110900- SOUTHEAST SOUTH DAKOTA CITY SKY/WX TMP DP RH WIND PRES REMARKS BROOKINGS PTCLDY 68 60 75 E10 30.20F CHAMBERLAIN NOT AVBL HURON CLEAR 71 62 73 E10 30.13F MADISON N/A 66 66 100 E6 30.20S MITCHELL CLEAR 72 70 93 E13 30.13S SIOUX FALLS CLEAR 73 69 87 E12 30.18S WINNER CLEAR 69 66 90 E7 30.10S YANKTON CLEAR 71 67 87 E8 30.14S $$ MNZ071-072-080-081-089-090-097-098-110900- SOUTHWEST MINNESOTA CITY SKY/WX TMP DP RH WIND PRES REMARKS FAIRMONT CLOUDY 68 64 87 N3 30.22R JACKSON MOCLDY 68 59 73 NE6 30.22S LUVERNE CLEAR 68 63 83 NE5 30.21R MARSHALL CLOUDY 70 60 70 SE7 30.22S MONTEVIDEO MOCLDY 63 59 88 E7 30.23R REDWOOD FALLS MOCLDY 67 58 72 E7 30.21F TRACY CLOUDY 69 58 68 E3 30.23R WINDOM PTCLDY 66 57 72 E5 30.22S WORTHINGTON CLOUDY 67 63 87 NE6 30.22F $$ IAZ001>003-012>014-020>022-031-032-NEZ013-014-SDZ071-110900- NORTHWEST IOWA CITY SKY/WX TMP DP RH WIND PRES REMARKS ESTHERVILLE CLOUDY 69 65 86 NE7 30.20 SHELDON CLOUDY 70 70 100 E7 30.18R SIOUX CITY CLEAR 68 65 90 E8 30.15S SPENCER CLEAR 71 66 84 E7 30.20R STORM LAKE CLEAR 68 66 94 SE6 30.19S $$ ABBREVIATIONS USED IN REMARKS TC - TEMPERATURE IN CELSIUS WCI - WIND CHILL INDEX HX - HEAT INDEX VSB - VISIBILITY ASUS43 KFSD 110802 RWRSD WEATHER ROUNDUP FOR SOUTH DAKOTA NATIONAL WEATHER SERVICE SIOUX FALLS SD 300 AM CDT THU AUG 11 2022 NOTE: "FAIR" INDICATES FEW OR NO CLOUDS BELOW 12,000 FEET WITH NO SIGNIFICANT WEATHER AND/OR OBSTRUCTIONS TO VISIBILITY. SDZ001>005-009-010-012>017-110900- NORTHWEST AND NORTH CENTRAL SOUTH DAKOTA CITY SKY/WX TMP DP RH WIND PRES REMARKS BUFFALO N/A 67 58 72 E16 30.11F MOBRIDGE CLEAR 70 53 54 E20G29 30.15F $$ SDZ012>016-024>037-041>051-057-063-072>074-110900- SOUTHWEST AND SOUTH CENTRAL SOUTH DAKOTA CITY SKY/WX TMP DP RH WIND PRES REMARKS RAPID CTY ARPT CLEAR 67 59 75 SE5 30.12F PIERRE PTCLDY 68 65 90 E14 30.10F CUSTER CLEAR 64 45 49 SW3 30.31S ELLSWORTH AFB CLEAR 71 60 69 SE8 30.10F PHILIP PTCLDY 72 69 90 E14 30.09F PINE RIDGE PTCLDY 78 50 37 S14G24 30.15S SPEARFISH FAIR 73 52 46 VRB5 30.13S WINNER CLEAR 69 66 90 E7 30.10S $$ SDZ004>011-016>023-039-040-110900- NORTHEAST SOUTH DAKOTA CITY SKY/WX TMP DP RH WIND PRES REMARKS ABERDEEN MOCLDY 68 57 68 E9 30.20F WATERTOWN CLOUDY 70 56 61 E7 30.20S BROOKINGS PTCLDY 68 60 75 E10 30.20F SISSETON N/A 63 58 83 S3 30.21S $$ SDZ017-020-022-023-036>040-048>070-110900- SOUTHEAST SOUTH DAKOTA CITY SKY/WX TMP DP RH WIND PRES REMARKS SIOUX FALLS CLEAR 73 69 87 E12 30.18S HURON CLEAR 71 62 73 E10 30.13F MADISON N/A 66 66 100 E6 30.20S MITCHELL CLEAR 72 70 93 E13 30.13S YANKTON CLEAR 71 67 87 E8 30.14S $$ ABBREVIATIONS USED IN REMARKS TC - TEMPERATURE IN CELSIUS WCI - WIND CHILL INDEX HX - HEAT INDEX VSB - VISIBILITY ASUS43 KFSD 110810 RWRFSD WEATHER ROUNDUP FOR SE SOUTH DAKOTA/SW MINNESOTA/NW IOWA NATIONAL WEATHER SERVICE SIOUX FALLS SD 300 AM CDT THU AUG 11 2022 NOTE: "FAIR" INDICATES FEW OR NO CLOUDS BELOW 12,000 FEET WITH NO SIGNIFICANT WEATHER AND OR OBSTRUCTIONS TO VISIBILITY. SDZ038>040-050-052>070-110900- SOUTHEAST SOUTH DAKOTA CITY SKY/WX TMP DP RH WIND PRES REMARKS BROOKINGS PTCLDY 68 60 75 E10 30.20F CHAMBERLAIN CLEAR 70 70 100 E8 30.10F HURON PTCLDY 71 62 73 E10 30.13F MADISON N/A 66 66 100 E6 30.20S MITCHELL CLEAR 72 70 93 E13 30.13S SIOUX FALLS PTCLDY 73 69 87 E12 30.18S WINNER CLEAR 69 66 90 E7 30.10S YANKTON CLEAR 71 67 87 E8 30.14S $$ MNZ071-072-080-081-089-090-097-098-110900- SOUTHWEST MINNESOTA CITY SKY/WX TMP DP RH WIND PRES REMARKS FAIRMONT CLOUDY 68 64 87 N3 30.22R JACKSON MOCLDY 68 59 73 NE6 30.22S LUVERNE PTCLDY 68 63 83 NE5 30.21R MARSHALL CLOUDY 70 60 70 SE7 30.22S MONTEVIDEO MOCLDY 63 59 88 E7 30.23R REDWOOD FALLS MOCLDY 67 58 72 E7 30.21F TRACY CLOUDY 69 58 68 E3 30.23R WINDOM CLEAR 66 57 72 E5 30.22S WORTHINGTON CLOUDY 67 63 87 NE6 30.22F $$ IAZ001>003-012>014-020>022-031-032-NEZ013-014-SDZ071-110900- NORTHWEST IOWA CITY SKY/WX TMP DP RH WIND PRES REMARKS CHEROKEE CLEAR 66 65 97 CALM 30.18R DENISON CLEAR 64 64 100 CALM 30.18S ESTHERVILLE CLOUDY 69 65 86 NE7 30.20 LE MARS CLEAR 70 66 88 S3 30.15S MAURICE CLOUDY 70 66 88 SE7 30.16R SHELDON CLOUDY 70 70 100 E7 30.18R SIOUX CITY CLEAR 68 65 90 E8 30.15S SPENCER CLEAR 71 66 84 E7 30.20R STORM LAKE CLEAR 68 66 94 SE6 30.19S $$ ABBREVIATIONS USED IN REMARKS TC - TEMPERATURE IN CELSIUS WCI - WIND CHILL INDEX HX - HEAT INDEX VSB - VISIBILITY ASUS43 KFSD 110810 RWRSD WEATHER ROUNDUP FOR SOUTH DAKOTA NATIONAL WEATHER SERVICE SIOUX FALLS SD 300 AM CDT THU AUG 11 2022 NOTE: "FAIR" INDICATES FEW OR NO CLOUDS BELOW 12,000 FEET WITH NO SIGNIFICANT WEATHER AND/OR OBSTRUCTIONS TO VISIBILITY. SDZ001>005-009-010-012>017-110900- NORTHWEST AND NORTH CENTRAL SOUTH DAKOTA CITY SKY/WX TMP DP RH WIND PRES REMARKS BUFFALO N/A 67 58 72 E16 30.11F MOBRIDGE CLEAR 70 53 54 E20G29 30.15F $$ SDZ012>016-024>037-041>051-057-063-072>074-110900- SOUTHWEST AND SOUTH CENTRAL SOUTH DAKOTA CITY SKY/WX TMP DP RH WIND PRES REMARKS RAPID CTY ARPT CLEAR 67 59 75 SE5 30.12F PIERRE PTCLDY 68 65 90 E14 30.10F CUSTER CLEAR 64 45 49 SW3 30.31S ELLSWORTH AFB CLEAR 71 60 69 SE8 30.10F PHILIP PTCLDY 72 69 90 E14 30.09F PINE RIDGE PTCLDY 78 50 37 S14G24 30.15S SPEARFISH FAIR 73 52 46 VRB5 30.13S WINNER CLEAR 69 66 90 E7 30.10S $$ SDZ004>011-016>023-039-040-110900- NORTHEAST SOUTH DAKOTA CITY SKY/WX TMP DP RH WIND PRES REMARKS ABERDEEN MOCLDY 68 57 68 E9 30.20F WATERTOWN CLOUDY 70 56 61 E7 30.20S BROOKINGS PTCLDY 68 60 75 E10 30.20F SISSETON N/A 63 58 83 S3 30.21S $$ SDZ017-020-022-023-036>040-048>070-110900- SOUTHEAST SOUTH DAKOTA CITY SKY/WX TMP DP RH WIND PRES REMARKS SIOUX FALLS PTCLDY 73 69 87 E12 30.18S HURON PTCLDY 71 62 73 E10 30.13F CHAMBERLAIN CLEAR 70 70 100 E8 30.10F MADISON N/A 66 66 100 E6 30.20S MITCHELL CLEAR 72 70 93 E13 30.13S YANKTON CLEAR 71 67 87 E8 30.14S $$ ABBREVIATIONS USED IN REMARKS TC - TEMPERATURE IN CELSIUS WCI - WIND CHILL INDEX HX - HEAT INDEX VSB - VISIBILITY
Office: EAX ASUS43 KEAX 110805 RWREAX WEATHER ROUNDUP FOR EASTERN KANSAS AND NORTHWEST MISSOURI NATIONAL WEATHER SERVICE KANSAS CITY/PLEASANT HILL MO 300 AM CDT THU AUG 11 2022 KSZ040-057-103>105-MOZ028-029-037-043-110900- ...KANSAS CITY METROPOLITAN AREA... CITY SKY/WX TMP DP RH WIND PRES REMARKS K.C. INTL CLEAR 70 62 76 CALM 30.16F K.C. DOWNTOWN CLEAR 68 64 87 NW3 30.15F LEES SUMMIT N/A N/A N/A N/A MISG 30.16F OLATHE - IXD CLEAR 67 59 75 E3 30.17F OLATHE - OJC CLEAR 68 60 75 SE3 30.16F LAWRENCE CLEAR 61 59 93 CALM 30.16F $$ MOZ001>008-011>017-020>025-030>033-038>040-044>046-053-054-110900- ...NORTHERN AND CENTRAL MISSOURI... CITY SKY/WX TMP DP RH WIND PRES REMARKS ST. JOSEPH CLEAR 60 60 100 CALM 30.17S MOSBY CLEAR 59 59 100 CALM 30.17S HARRISONVILLE CLEAR 64 61 88 CALM 30.18S WHITEMAN AFB CLEAR 61 60 96 CALM 30.12S CLINTON CLEAR 63 63 100 CALM 30.14F FOG SEDALIA CLEAR 65 61 87 CALM 30.17S MARSHALL CLEAR 63 61 94 CALM 30.17S CHILLICOTHE N/A 64 62 93 CALM 30.17F MOBERLY FOG 61 59 94 CALM 30.17S VSB 3/4 KIRKSVILLE CLEAR 58 58 100 CALM 30.17F FOG $$ MOZ041-047>049-056>058-063>065-088>090-097-110900- ...EASTERN AND SOUTHERN MISSOURI... CITY SKY/WX TMP DP RH WIND PRES REMARKS ST. LOUIS INTL CLEAR 68 62 81 CALM 30.14F SPIRIT OF STL FOG 60 60 100 CALM 30.13F VSB 3/4 COLUMBIA CLEAR 64 60 87 S5 30.16S JEFFERSON CITY CLEAR 65 60 84 CALM 30.15S MEXICO CLEAR 55 55 100 CALM 30.15F HANNIBAL CLEAR N/A N/A N/A CALM 30.16S ROLLA N/A N/A N/A N/A MISG 30.17S LEBANON CLEAR 66 61 82 E3 30.18S OSAGE BEACH CLEAR N/A N/A N/A CALM N/A SPRINGFIELD CLEAR 68 62 81 E6 30.14F BRANSON CLEAR 68 64 88 CALM 30.15F JOPLIN CLEAR 68 64 87 NE5 30.13F WEST PLAINS CLEAR 65 62 90 CALM 30.16F SIKESTON CLEAR 68 64 88 CALM 30.10F $$ IAZ060-094-KSZ022-034>040-054-083-096-NEZ052-066-093-110900- ...KANSAS...SOUTHEAST NEBRASKA AND IOWA... CITY SKY/WX TMP DP RH WIND PRES REMARKS TOPEKA FOG 64 63 96 CALM 30.16S VSB 1/2 MANHATTAN CLEAR 64 60 87 CALM 30.17S EMPORIA CLEAR 66 61 84 CALM 30.16F OTTAWA FAIR 57 57 100 CALM 30.14F CHANUTE CLEAR 65 61 87 N3 30.14F SALINA CLEAR 67 57 70 SE3 30.18S WICHITA CLEAR 71 60 68 E7 30.15F OMAHA CLEAR 72 66 81 E3 30.16S LINCOLN CLEAR 71 61 70 S5 30.18S FALLS CITY CLEAR 65 63 93 CALM 30.16S DES MOINES CLEAR 70 61 73 CALM 30.17S $$ ASUS43 KEAX 110810 RWREAX WEATHER ROUNDUP FOR EASTERN KANSAS AND NORTHWEST MISSOURI NATIONAL WEATHER SERVICE KANSAS CITY/PLEASANT HILL MO 300 AM CDT THU AUG 11 2022 KSZ040-057-103>105-MOZ028-029-037-043-110900- ...KANSAS CITY METROPOLITAN AREA... CITY SKY/WX TMP DP RH WIND PRES REMARKS K.C. INTL CLEAR 70 62 76 CALM 30.16F K.C. DOWNTOWN CLEAR 68 64 87 NW3 30.15F LEES SUMMIT N/A N/A N/A N/A MISG 30.16F OLATHE - IXD CLEAR 67 59 75 E3 30.17F OLATHE - OJC CLEAR 68 60 75 SE3 30.16F LAWRENCE CLEAR 61 59 93 CALM 30.16F $$ MOZ001>008-011>017-020>025-030>033-038>040-044>046-053-054-110900- ...NORTHERN AND CENTRAL MISSOURI... CITY SKY/WX TMP DP RH WIND PRES REMARKS ST. JOSEPH CLEAR 60 60 100 CALM 30.17S MOSBY CLEAR 59 59 100 CALM 30.17S HARRISONVILLE CLEAR 64 61 88 CALM 30.18S WHITEMAN AFB CLEAR 61 60 96 CALM 30.12S CLINTON CLEAR 63 63 100 CALM 30.14F FOG SEDALIA CLEAR 65 61 87 CALM 30.17S MARSHALL CLEAR 63 61 94 CALM 30.17S CHILLICOTHE N/A 64 62 93 CALM 30.17F MOBERLY FOG 61 59 94 CALM 30.17S VSB 3/4 KIRKSVILLE CLEAR 58 58 100 CALM 30.17F FOG $$ MOZ041-047>049-056>058-063>065-088>090-097-110900- ...EASTERN AND SOUTHERN MISSOURI... CITY SKY/WX TMP DP RH WIND PRES REMARKS ST. LOUIS INTL CLEAR 68 62 81 CALM 30.14F SPIRIT OF STL FOG 61 60 97 CALM 30.13F VSB 3/4 COLUMBIA CLEAR 64 60 87 S5 30.16S JEFFERSON CITY CLEAR 65 60 84 CALM 30.15S MEXICO CLEAR 55 55 100 CALM 30.15F HANNIBAL CLEAR N/A N/A N/A CALM 30.16S ROLLA N/A N/A N/A N/A MISG 30.17S LEBANON CLEAR 66 61 82 E3 30.18S OSAGE BEACH CLEAR N/A N/A N/A CALM N/A SPRINGFIELD CLEAR 68 62 81 E6 30.14F BRANSON CLEAR 68 64 88 CALM 30.15F JOPLIN CLEAR 68 64 87 NE5 30.13F WEST PLAINS CLEAR 65 62 90 CALM 30.16F SIKESTON CLEAR 68 64 88 CALM 30.10F $$ IAZ060-094-KSZ022-034>040-054-083-096-NEZ052-066-093-110900- ...KANSAS...SOUTHEAST NEBRASKA AND IOWA... CITY SKY/WX TMP DP RH WIND PRES REMARKS TOPEKA FOG 64 63 96 CALM 30.16S VSB 1/2 MANHATTAN CLEAR 64 60 87 CALM 30.17S EMPORIA CLEAR 66 61 84 CALM 30.16F OTTAWA FAIR 57 57 100 CALM 30.14F CHANUTE CLEAR 65 61 87 N3 30.14F SALINA CLEAR 67 57 70 SE3 30.18S WICHITA CLEAR 71 60 68 E7 30.15F OMAHA CLEAR 72 66 81 E3 30.16S LINCOLN CLEAR 71 61 70 S5 30.18S FALLS CITY CLEAR 65 63 93 CALM 30.16S DES MOINES CLEAR 70 61 73 CALM 30.17S $$ ASUS43 KEAX 110815 RWREAX WEATHER ROUNDUP FOR EASTERN KANSAS AND NORTHWEST MISSOURI NATIONAL WEATHER SERVICE KANSAS CITY/PLEASANT HILL MO 300 AM CDT THU AUG 11 2022 KSZ040-057-103>105-MOZ028-029-037-043-110900- ...KANSAS CITY METROPOLITAN AREA... CITY SKY/WX TMP DP RH WIND PRES REMARKS K.C. INTL CLEAR 70 62 76 CALM 30.16F K.C. DOWNTOWN CLEAR 68 64 87 NW3 30.15F LEES SUMMIT N/A N/A N/A N/A MISG 30.16F OLATHE - IXD CLEAR 67 59 75 E3 30.17F OLATHE - OJC CLEAR 68 60 75 SE3 30.16F LAWRENCE CLEAR 61 59 93 CALM 30.16F $$ MOZ001>008-011>017-020>025-030>033-038>040-044>046-053-054-110900- ...NORTHERN AND CENTRAL MISSOURI... CITY SKY/WX TMP DP RH WIND PRES REMARKS ST. JOSEPH CLEAR 60 60 100 CALM 30.17S MOSBY CLEAR 59 59 100 CALM 30.17S HARRISONVILLE CLEAR 64 61 88 CALM 30.18S WHITEMAN AFB CLEAR 61 60 96 CALM 30.12S CLINTON CLEAR 63 63 100 CALM 30.14F FOG SEDALIA CLEAR 65 61 87 CALM 30.17S MARSHALL CLEAR 63 61 94 CALM 30.17S CHILLICOTHE N/A 64 62 93 CALM 30.17F MOBERLY FOG 61 57 88 CALM 30.17S VSB 1 KIRKSVILLE CLEAR 59 58 96 CALM 30.18S FOG $$ MOZ041-047>049-056>058-063>065-088>090-097-110900- ...EASTERN AND SOUTHERN MISSOURI... CITY SKY/WX TMP DP RH WIND PRES REMARKS ST. LOUIS INTL CLEAR 68 62 81 CALM 30.14F SPIRIT OF STL FOG 61 61 100 CALM 30.13F VSB 1 COLUMBIA CLEAR 64 60 87 S5 30.16S JEFFERSON CITY CLEAR 65 60 84 CALM 30.15S MEXICO CLEAR 55 55 100 CALM 30.15F FOG HANNIBAL CLEAR N/A N/A N/A CALM 30.16S ROLLA N/A N/A N/A N/A MISG 30.17S LEBANON CLEAR 66 61 82 E3 30.18S OSAGE BEACH CLEAR N/A N/A N/A CALM N/A SPRINGFIELD CLEAR 68 62 81 E6 30.14F BRANSON CLEAR 68 64 88 CALM 30.15F JOPLIN CLEAR 68 64 87 NE5 30.13F WEST PLAINS CLEAR 65 62 90 CALM 30.16F SIKESTON CLEAR 68 64 88 CALM 30.10F $$ IAZ060-094-KSZ022-034>040-054-083-096-NEZ052-066-093-110900- ...KANSAS...SOUTHEAST NEBRASKA AND IOWA... CITY SKY/WX TMP DP RH WIND PRES REMARKS TOPEKA FOG 64 63 96 CALM 30.15F VSB 1 MANHATTAN CLEAR 64 60 87 CALM 30.17S EMPORIA CLEAR 66 61 84 CALM 30.16F OTTAWA FAIR 57 57 100 CALM 30.14F CHANUTE CLEAR 65 61 87 N3 30.14F SALINA CLEAR 67 57 70 SE3 30.18S WICHITA CLEAR 71 60 68 E7 30.15F OMAHA CLEAR 72 66 81 E3 30.16S LINCOLN CLEAR 71 61 70 S5 30.18S FALLS CITY CLEAR 65 63 93 CALM 30.16S DES MOINES CLEAR 70 61 73 CALM 30.17S $$